Regional Weather Roundup
Issued by NWS

Home | Current Version | Previous Version | Text Only | Print | Product List | Glossary Off
Versions: 1 2 3 4 5 6 7 8 9 10 11 12 13 14 15 16 17 18 19 20 21 22 23 24 25 26 27 28 29 30 31 32 33 34 35 36 37 38 39 40 41 42 43 44 45 46 47 48 49 50

000
ASUS43 KMKX 301711
RWRWI

WISCONSIN REGIONAL WEATHER ROUNDUP
NATIONAL WEATHER SERVICE MILWAUKEE/SULLIVAN WI
1200 PM CDT THU JUL 30 2015

NOTE: "FAIR" INDICATES FEW OR NO CLOUDS BELOW 12,000 FEET WITH NO
SIGNIFICANT WEATHER AND/OR OBSTRUCTIONS TO VISIBILITY.

WIZ001-002-006>008-014>016-023>028-301800-
NORTHWEST WISCONSIN

CITY           SKY/WX    TMP DP  RH WIND       PRES   REMARKS
SUPERIOR ARPT  PTSUNNY   78  59  52 W8        29.94F
ASHLAND        SUNNY     80  59  48 W12G18    29.95R HX  81
HAYWARD        MOSUNNY   78  56  46 W8        29.99S
SIREN          SUNNY     79  57  46 NW16G23   30.01S HX  80
CUMBERLAND     MOSUNNY   75  55  50 W14G26    30.02S
RICE LAKE      SUNNY     77  60  55 W7        30.03S
CHETEK         SUNNY     79  60  53 W9        30.02R HX  80
LADYSMITH      MOSUNNY   79  58  49 W13G22    30.02S HX  80
EAU CLAIRE     SUNNY     81  58  45 W16       30.02R HX  81
MENOMONIE      SUNNY     81  56  42 W15       30.03R HX  81
NEW RICHMOND   SUNNY     79  57  47 W10       30.04S HX  80
OSCEOLA        SUNNY     78  59  52 W13G20    30.06S
$$

WIZ003>005-009-010-017-018-301800-
NORTH CENTRAL WISCONSIN

CITY           SKY/WX    TMP DP  RH WIND       PRES   REMARKS
MANITOWISH WTR PTSUNNY   74  54  49 NW15G24   29.97R
ARBOR VITAE    MOSUNNY   77  56  48 NW12G21   29.97R
WOODRUFF       MOSUNNY   77  56  48 NW12G21   29.97R
RHINELANDER    MOSUNNY   78  54  43 NW12G24   29.98R
EAGLE RIVER    MOSUNNY   77  46  33 NW22G30   29.96R
LAND O LAKES   SUNNY     77  49  37 NW10G22   29.96R
PHILLIPS       MOSUNNY   76  56  49 W10G20    29.99R
TOMAHAWK       MOSUNNY   77  54  45 W15G25    29.99S
MEDFORD        MOSUNNY   76  59  57 W14G21    30.01S
MERRILL        NOT AVBL
$$

WIZ029-030-035-036-043>047-301800-
CENTRAL WISCONSIN

CITY           SKY/WX    TMP DP  RH WIND       PRES   REMARKS
WAUSAU         SUNNY     81  56  42 W16G29    29.98S HX  81
MOSINEE        MOSUNNY   79  57  47 W9G24     30.01R HX  80
MARSHFIELD     MOSUNNY   80  57  45 W13G21    30.02S HX  80
STEVENS POINT  SUNNY     78  58  49 W12G17    30.01S
WAUPACA        SUNNY     84  56  37 W15       29.99S HX  83
WAUTOMA        SUNNY     85  55  35 W18       30.01S HX  83
WISC RAPIDS    MOSUNNY   83  55  38 W12G22    30.03S HX  82
CAMP DOUGLAS   MOSUNNY   82  59  44 W17G24    30.03S HX  82
$$

WIZ011>013-019>022-031-037>040-048>050-301800-
NORTHEAST WISCONSIN

CITY           SKY/WX    TMP DP  RH WIND       PRES   REMARKS
ANTIGO         PTSUNNY   76  55  46 W18G29    29.98S
SHAWANO        PTSUNNY   82  55  38 NW13G22   29.96S HX  82
OCONTO         SUNNY     82  56  39 W16G24    29.92S HX  82
STURGEON BAY   SUNNY     79  55  44 W16G22    29.95R
GREEN BAY      SUNNY     82  60  47 W14G20    29.96S HX  82
MANITOWOC      SUNNY     82  59  45 MISG      29.96F HX  82
APPLETON       MOSUNNY   81  54  39 W16G29    30.00R HX  80
CLINTONVILLE   PTSUNNY   81  55  41 W10       29.97S HX  80
OSHKOSH        SUNNY     83  57  41 W15G25    29.99S HX  82
$$

WIZ032>034-041-042-053>061-301800-
SOUTHWEST WISCONSIN

CITY           SKY/WX    TMP DP  RH WIND       PRES   REMARKS
LA CROSSE      SUNNY     84  57  39 W13       30.05R HX  83
SPARTA         SUNNY     82  53  36 W15       30.05S HX  81
VIROQUA        SUNNY     80  58  46 W8G18     30.09S HX  80
BOSCOBEL       SUNNY     86  57  37 W9G17     30.07S HX  85
PRAIRIE DU CHI SUNNY     84  50  30 W10       30.07F HX  82
PLATTEVILLE    SUNNY     81  58  45 W10G21    30.10S HX  81
$$

WIZ056-057-062-063-064-067-068-301800-
SOUTH CENTRAL WISCONSIN

CITY           SKY/WX    TMP DP  RH WIND       PRES   REMARKS
REEDSBURG      SUNNY     83  56  38 W15G28    30.05S HX  82
BARABOO/DELLS  SUNNY     84  50  30 NW14G22   30.05S HX  82
LONE ROCK      SUNNY     84  57  39 W9G24     30.06F HX  83
MINERAL POINT  SUNNY     82  52  34 NW12G20   30.10R HX  81
MADISON        MOSUNNY   83  58  42 W9        30.05S HX  83
MIDDLETON      SUNNY     85  53  33 W14G20    30.07S HX  83
WATERTOWN      SUNNY     81  61  50 W13       30.04S HX  82
MONROE         SUNNY     81  55  41 W17       30.09S HX  80
JANESVILLE     SUNNY     84  55  37 W13G18    30.06S HX  83
$$

WIZ051-052-058>065-066-070>072-301800-
SOUTHEAST WISCONSIN

CITY           SKY/WX    TMP DP  RH WIND       PRES   REMARKS
MILWAUKEE      MOSUNNY   85  52  32 W17G26    30.03R HX  83
WAUKESHA       SUNNY     81  55  41 W14G21    30.05S HX  80
MILWAUKEE/TIMM SUNNY     82  50  32 MISG      30.03S HX  81
RACINE         SUNNY     84  56  38 W13G22    30.05S HX  83
BURLINGTON     SUNNY     82  54  39 W14G21    30.05S HX  81
KENOSHA        SUNNY     82  60  47 W10       30.05S HX  82
FOND DU LAC    SUNNY     84  59  42 W15       30.00F HX  84
SHEBOYGAN      SUNNY     82  58  43 W16G24    29.99S HX  82
WEST BEND      SUNNY     81  52  36 W18G24    30.02S HX  80
JUNEAU         SUNNY     79  58  49 W9G18     30.04S HX  80
$$

LSZ147-162-301800-
LAKE SUPERIOR

STATION/POSITION TIME  TEMP    WIND        PRES    WAVE
                       AIR SEA DIR/SP/G            HT/PER
                 (UTC) (F)     (DEG/KT/KT) (MB)    (FT/S)
W MID LAKE BUOY  1650   57 53  230/ 12/ 14 1011.9R   3/ 5
DEVILS ISLAND    1700   65     240/ 17/ 19 1013.2S
PORT WING        1600   73     250/ 10/ 16 1013.9F
SAXON HARBOR     1600   69                 1013.5R
$$

LMZ867-665-643>646-301800-
LAKE MICHIGAN

STATION/POSITION TIME  TEMP    WIND        PRES    WAVE
                       AIR SEA DIR/SP/G            HT/PER
                 (UTC) (F)     (DEG/KT/KT) (MB)    (FT/S)
CHAMBERS ISLAND  1600   76     230/  8/ 13 1012.2S
S GREEN BAY BUOY 1600   68 66  250/ 10/ 12 1014.8
N MID LAKE BUOY  1650   71 68  240/ 14/ 16 1011.2R   3/ 5
NORTHPORT PIER   1600   76     280/  7/ 13 1011.9R
SISTER BAY       1644   79     290/ 15/ 17   N/A
ALGOMA LAKESHORE 1612          320/ 11/ 20   N/A
KEWAUNEE LAKESHO 1600   78     290/ 13/ 20 1013.3R
SHEBOYGAN LAKESH 1700   80     300/ 16/ 21 1015.2F
PORT WASHINGTON  1600   82     300/ 10/ 17 1016.3S
ATWATER BUOY     1700   76 58  260/ 16/ 19 1017.7S
MILWAUKEE LAKESH 1600   80     290/ 16/ 21   N/A
KENOSHA   LAKESH 1700   82     290/ 15/ 22 1016.6S
$$

TC  - TEMPERATURE IN CELSIUS
VSB - VISIBILITY IN STATUTE MILES
WCI - WIND CHILL INDEX
HX  - HEAT INDEX



USA.gov is the U.S. government's official web portal to all federal, state and local government web resources and services.